This is the latest recevied weather packets stored in our database for station/object DL4MGC-10. If no packets are shown the sender has not sent any weather packets the latest 10 day(s).
| Time | Temp. | Humidity | Pressure | Rain* | Wind** | Luminosity | Snow |
|---|---|---|---|---|---|---|---|
| 1788463643 | 22.78° C | 60% | 1021.6 hPa | - | - | - | - |
| 1788462743 | 23.33° C | 60% | 1021.6 hPa | - | - | - | - |
| 1788461843 | 22.78° C | 59% | 1021.3 hPa | - | - | - | - |
| 1788460943 | 23.33° C | 57% | 1021.1 hPa | - | - | - | - |
| 1788460043 | 23.89° C | 56% | 1021.2 hPa | - | - | - | - |
| 1788459143 | 23.89° C | 56% | 1021 hPa | - | - | - | - |
| 1788458242 | 24.44° C | 56% | 1020.8 hPa | - | - | - | - |
| 1788457342 | 24.44° C | 56% | 1020.8 hPa | - | - | - | - |
| 1788456442 | 25° C | 57% | 1020.7 hPa | - | - | - | - |
| 1788455542 | 25° C | 59% | 1020.7 hPa | - | - | - | - |
| 1788454642 | 25.56° C | 58% | 1020.8 hPa | - | - | - | - |
| 1788453742 | 25.56° C | 57% | 1020.6 hPa | - | - | - | - |
| 1788452842 | 26.11° C | 55% | 1020.5 hPa | - | - | - | - |
| 1788451942 | 26.67° C | 52% | 1020.5 hPa | - | - | - | - |
| 1788451041 | 26.11° C | 51% | 1020.6 hPa | - | - | - | - |
| 1788450141 | 26.67° C | 50% | 1020.6 hPa | - | - | - | - |
| 1788449241 | 27.22° C | 49% | 1020.7 hPa | - | - | - | - |
| 1788448341 | 26.67° C | 50% | 1020.7 hPa | - | - | - | - |
| 1788447441 | 26.67° C | 50% | 1020.8 hPa | - | - | - | - |
| 1788446541 | 27.78° C | 49% | 1020.7 hPa | - | - | - | - |
| 1788445641 | 27.22° C | 48% | 1020.8 hPa | - | - | - | - |
| 1788444741 | 28.33° C | 47% | 1021.1 hPa | - | - | - | - |
| 1788443841 | 27.78° C | 48% | 1021.2 hPa | - | - | - | - |
| 1788442940 | 27.78° C | 50% | 1021.4 hPa | - | - | - | - |
| 1788442040 | 27.22° C | 49% | 1021.5 hPa | - | - | - | - |
* Rain since midnight (hover to see other rain measurements)
** Current wind speed in m/s (hover to see current wind gust speed)